La Rosiere, France 16 day weather forecast

Slopes altitude range 1175 m - 2610m

Number of lifts: 39 Pistes: 150km

In some cases the lift and piste totals shown are for the ski domain (e.g. Three Valleys) rather than individual resort (e.g. Courchevel)

Overview

The 16 day weather forecast is fully updated 4 times every day.

    • Wed 26 JUN 2019
    • Wed 26
    • 17C 21C
    • Thu 27 JUN 2019
    • Thu 27
    • 17C 21C
    • Fri 28 JUN 2019
    • Fri 28
    • 17C 21C
    • Sat 29 JUN 2019
    • Sat 29
    • 11C 19C
    • Sun 30 JUN 2019
    • Sun 30
    • 14C 19C
    • Mon 01 JUL 2019
    • Mon 01
    • 15C 19C
    • Tue 02 JUL 2019
    • Tue 02
    • 13C 17C
    • Wed 03 JUL 2019
    • Wed 03
    • 11C 14C
    • Thu 04 JUL 2019
    • Thu 04
    • 14C 20C
    • Fri 05 JUL 2019
    • Fri 05
    • 15C 20C
    • Sat 06 JUL 2019
    • Sat 06
    • 10C 13C
    • Sun 07 JUL 2019
    • Sun 07
    • 11C 20C
    • Mon 08 JUL 2019
    • Mon 08
    • 16C 23C
    • Tue 09 JUL 2019
    • Tue 09
    • 15C 20C
    • Wed 10 JUL 2019
    • Wed 10
    • 15C 18C
    • Thu 11 JUL 2019
    • Thu 11
    • 15C 22C

Date:

Time Type 0°C level Temp Chill Snow Cloud Speed Gust Dir Press
3:00 4634m 9°C 9_4 0cm 0% 4mph 5mph 1025mB
6:00 4613m 8°C 8_1 0cm 0% 1mph 2mph 1025mB
9:00 4609m 17°C 17_5 0cm 0% 5mph 6mph 1024mB
12:00 4660m 21°C 21_5 0cm 0% 5mph 5mph 1024mB
15:00 4469m 22°C 22_2 0cm 80% 2mph 4mph 1023mB
18:00 4624m 22°C 22_9 0cm 89% 9mph 9mph 1024mB
21:00 4638m 10°C 10_4 0cm 96% 4mph 5mph 1026mB
0:00 4623m 10°C 10_1 0cm 98% 1mph 1mph 1025mB
3:00 4582m 9°C 9_1 0cm 77% 1mph 1mph 1024mB
6:00 4600m 9°C 9_1 0cm 39% 1mph 2mph 1024mB
9:00 4558m 17°C 17_6 0cm 0% 6mph 8mph 1023mB
12:00 4628m 21°C 21_9 0cm 0% 9mph 8mph 1021mB
15:00 4646m 21°C 21_10 0cm 0% 10mph 9mph 1020mB
18:00 4592m 21°C 21_6 0cm 0% 6mph 7mph 1019mB
21:00 4681m 11°C 11_2 0cm 0% 2mph 3mph 1021mB
0:00 4655m 9°C 9_1 0cm 0% 1mph 2mph 1020mB
3:00 4616m 8°C 8_1 0cm 0% 1mph 2mph 1019mB
6:00 4605m 7°C 7_2 0cm 0% 2mph 2mph 1019mB
9:00 4591m 17°C 17_7 0cm 0% 7mph 10mph 1018mB
12:00 4555m 21°C 21_9 0cm 0% 9mph 10mph 1016mB
15:00 4560m 21°C 21_9 0cm 0% 9mph 9mph 1015mB
18:00 4802m 21°C 21_6 0cm 0% 6mph 6mph 1016mB
21:00 4865m 9°C 9_2 0cm 0% 2mph 2mph 1018mB
0:00 4851m 8°C 8_2 0cm 0% 2mph 2mph 1018mB
3:00 4871m 7°C 7_3 0cm 0% 3mph 4mph 1019mB
6:00 4879m 6°C 6_5 0cm 2% 5mph 5mph 1019mB
9:00 4885m 12°C 12_5 0cm 1% 5mph 4mph 1019mB
12:00 4875m 19°C 19_7 0cm 0% 7mph 5mph 1017mB
15:00 4886m 20°C 20_7 0cm 0% 7mph 5mph 1017mB
18:00 4877m 20°C 20_6 0cm 0% 6mph 5mph 1018mB
21:00 4817m 9°C 9_2 0cm 0% 2mph 3mph 1020mB
0:00 4855m 7°C 7_2 0cm 0% 2mph 3mph 1020mB
3:00 4776m 6°C 6_2 0cm 2% 2mph 3mph 1020mB
6:00 4740m 6°C 6_3 0cm 1% 3mph 3mph 1020mB
9:00 4711m 14°C 14_5 0cm 0% 5mph 5mph 1020mB
12:00 4690m 19°C 19_6 0cm 0% 6mph 5mph 1019mB
15:00 4481m 19°C 19_7 0cm 0% 7mph 7mph 1018mB
18:00 4555m 19°C 19_5 0cm 0% 5mph 5mph 1018mB
21:00 4589m 9°C 9_0 0cm 0% 0mph 1mph 1021mB
0:00 4585m 8°C 8_1 0cm 2% 1mph 2mph 1020mB
3:00 4548m 8°C 8_2 0cm 70% 2mph 3mph 1019mB
6:00 4486m 7°C 7_3 0cm 67% 3mph 3mph 1020mB
9:00 4446m 15°C 15_6 0cm 0% 6mph 4mph 1019mB
12:00 4403m 19°C 19_6 0cm 0% 6mph 5mph 1018mB
15:00 4406m 19°C 19_4 0cm 77% 4mph 5mph 1016mB
18:00 4433m 19°C 19_6 0cm 59% 6mph 7mph 1017mB
21:00 4141m 9°C 9_5 0cm 100% 5mph 6mph 1020mB
0:00 4230m 8°C 8_1 0cm 100% 1mph 2mph 1019mB
3:00 4207m 8°C 8_1 0cm 100% 1mph 2mph 1018mB
6:00 4231m 7°C 7_4 0cm 67% 4mph 4mph 1018mB
9:00 4206m 13°C 13_6 0cm 69% 6mph 5mph 1017mB
12:00 4205m 17°C 17_7 0cm 62% 7mph 6mph 1016mB
15:00 4156m 17°C 17_6 0cm 82% 6mph 6mph 1015mB
18:00 4160m 17°C 17_1 0cm 91% 1mph 2mph 1016mB
21:00 4117m 9°C 9_1 0cm 100% 1mph 2mph 1018mB
0:00 4092m 8°C 8_4 0cm 100% 4mph 5mph 1017mB
3:00 4026m 6°C 6_2 0cm 61% 2mph 3mph 1017mB
6:00 3944m 6°C 6_3 0cm 54% 3mph 3mph 1018mB
9:00 3987m 11°C 11_6 0cm 75% 6mph 5mph 1017mB
12:00 4120m 14°C 14_5 0cm 78% 5mph 5mph 1016mB
15:00 4098m 18°C 18_3 0cm 97% 3mph 5mph 1016mB
18:00 4143m 18°C 18_2 0cm 98% 2mph 3mph 1016mB
21:00 4022m 11°C 11_4 0cm 100% 4mph 5mph 1018mB
0:00 3985m 11°C 11_7 0cm 99% 7mph 8mph 1018mB
3:00 4021m 10°C 10_7 0cm 44% 7mph 8mph 1018mB
6:00 3996m 9°C 9_3 0cm 27% 3mph 3mph 1018mB
9:00 4041m 14°C 14_4 0cm 19% 4mph 4mph 1017mB
12:00 4055m 20°C 20_5 0cm 45% 5mph 5mph 1017mB
15:00 4065m 20°C 20_5 0cm 54% 5mph 5mph 1016mB
18:00 4140m 20°C 20_3 0cm 49% 3mph 4mph 1016mB
21:00 4077m 11°C 11_4 0cm 20% 4mph 5mph 1018mB
0:00 4177m 10°C 10_6 0cm 40% 6mph 7mph 1018mB
3:00 4096m 10°C 10_7 0cm 47% 7mph 9mph 1018mB
6:00 4015m 10°C 10_7 0cm 73% 7mph 8mph 1018mB
9:00 3972m 15°C 15_5 0cm 44% 5mph 9mph 1018mB
12:00 4042m 20°C 20_6 0cm 27% 6mph 8mph 1017mB
15:00 4119m 20°C 20_6 0cm 49% 6mph 9mph 1016mB
18:00 4183m 20°C 20_5 0cm 61% 5mph 6mph 1017mB
21:00 4151m 10°C 10_8 0cm 100% 8mph 9mph 1020mB
0:00 3999m 10°C 10_7 0cm 62% 7mph 8mph 1020mB
Afternoon 0.125mm 0.3125 3837m 13°C 13_5 0cm 94% 5mph 5mph 1019mB
Morning 0mm 0 4606m 5°C 5_4 0cm 2% 4mph 5mph 1022mB
Afternoon 0mm 0 4569m 20°C 20_6 0cm 0% 6mph 6mph 1020mB
Morning 0mm 0 4497m 11°C 11_6 0cm 17% 6mph 7mph 1020mB
Afternoon 0mm 0.0625 4431m 23°C 23_5 0cm 27% 5mph 6mph 1016mB
Morning 0.0625mm 0.1875 4395m 12°C 12_6 0cm 18% 6mph 7mph 1018mB
Afternoon 0.1875mm 0.5625 4286m 20°C 20_4 0cm 2% 4mph 5mph 1016mB
Morning 0.770833mm 2.3125 4197m 11°C 11_1 0cm 81% 1mph 2mph 1019mB
Afternoon 0.791667mm 2.4375 4176m 18°C 18_4 0cm 90% 4mph 4mph 1016mB
Morning 0.0625mm 0.1875 4156m 11°C 11_5 0cm 67% 5mph 6mph 1016mB
Afternoon 0.166667mm 0.4375 4129m 22°C 22_6 0cm 66% 6mph 7mph 1012mB
Morning 0.895833mm 1.125 3755m 9°C 9_3 0cm 90% 3mph 4mph 1011mB

16 day outlook at a glance

Forecast issued: 6/26/2019 7:47:45 AM

Chat

Your comments and questions. In a resort? Let us know what it's like!


Characters left 250

For terms and conditions see Readers Comments on the Cookie and privacy policy page.